Terminal Aerodrome Forecast
Issued by NWS

Home | Current Version | Previous Version | Text Only | Print | Product List | Glossary On
Versions: 1 2 3 4 5 6 7 8 9 10 11 12 13 14 15
000
FTUS46 KMTR 280600 AAA
TAFOAK
TAF AMD
KOAK 280641Z 2807/2912 VRB02KT 5SM MIFG BR FEW004
     FM280700 VRB03KT 2SM BCFG BR SCT003
     FM280800 VRB03KT 1/4SM FG OVC001
     FM281800 22008KT 4SM BR FEW009 SCT050 BKN150
     FM290300 18008G16KT 5SM HZ SCT050 OVC100 PROB30 2903/2906 -RA
      OVC040
     FM290600 18008G16KT 3SM -RA BR OVC030=

USA.gov is the U.S. government's official web portal to all federal, state and local government web resources and services.